Regional Weather Roundup
Issued by NWS

Home | Current Version | Previous Version | Graphics & Text | Print | Product List | Glossary On
Versions: 1 2 3 4 5 6 7 8 9 10 11 12 13 14 15 16 17 18 19 20 21 22 23 24 25 26 27
000
ASUS45 KBOU 230610
RWRCO

WEATHER ROUNDUP FOR COLORADO
NATIONAL WEATHER SERVICE DENVER/BOULDER CO
1200 AM MDT WED MAY 23 2018

NOTE: "FAIR" INDICATES FEW OR NO CLOUDS BELOW 12000 FEET WITH NO
SIGNIFICANT WEATHER AND/OR OBSTRUCTIONS TO VISIBILITY.

COZ001>005-013-030-031-230700-
...NORTHWEST COLORADO...

CITY           SKY/WX    TMP DP  RH WIND       PRES   REMARKS
CRAIG          FAIR      48  42  80 E6        30.07F
HAYDEN         FAIR      45  43  93 E12       30.10F
MEEKER         FAIR      44  40  85 E6        30.06S
RANGELY        FAIR      52  46  79 E9        30.00S
RABBIT EARS PA FAIR      36  34  93 CALM      30.26S
STEAMBOAT SPGS FAIR      42  42 100 CALM      30.10F
WALDEN         FAIR      39  36  87 S5        30.16S
$$

COZ006>008-011-230700-
...WEST CENTRAL VALLEYS...

CITY           SKY/WX    TMP DP  RH WIND       PRES   REMARKS
GRAND JUNCTION FAIR      52  44  74 E12       29.96S
MONTROSE       FAIR      48  41  76 SE10      30.03F
EAGLE          FAIR      47  39  74 CALM      30.12S
RIFLE          FAIR      47  41  80 SE5       30.03F
DELTA          FAIR      51  46  82 CALM      30.00F
NUCLA          FAIR      54  36  50 SE6       30.03S
$$

COZ017>023-064>068-230700-
...SOUTHWEST COLORADO...

CITY           SKY/WX    TMP DP  RH WIND       PRES   REMARKS
DURANGO        FAIR      48  29  47 NE9       30.04R
CORTEZ         FAIR      48  31  51 E5        29.99R
PAGOSA SPRINGS FAIR      47  25  42 CALM      30.10S
TELLURIDE      FAIR      45  33  61 SE7       30.19S
WOLF CREEK PAS FAIR      37  21  52 SW7       30.37F
$$

COZ009-010-012-014-032>034-037-058>063-230700-
...CENTRAL COLORADO...

CITY           SKY/WX    TMP DP  RH WIND       PRES   REMARKS
ASPEN          FAIR      38  34  85 SW5       30.13S
BUENA VISTA    FAIR      47  37  67 W9        30.13F
COPPER MTN     FAIR      45  28  53 S12       30.33F
BERTHOUD PASS  FAIR      32  23  69 SW3       30.37R
COTTONWOOD PAS FAIR      54  30  40 W5        30.23F
GUNNISON       FAIR      46  34  62 NE7       30.12S
GRANBY         FAIR      39  37  94 CALM      30.19S
KREMMLING      FAIR      45  41  87 E3        30.16S
LEADVILLE      FAIR      33  31  92 CALM      30.22F
MONARCH PASS   FAIR      39  23  52 MISG      30.44R
SALIDA         FAIR      52  35  52 W5        30.19S
SUNLIGHT       FAIR      34  32  93 E7        30.29F WCI  28
WILKERSON PASS FAIR      41  32  70 SE6       30.35S
$$

COZ069>075-230700-
...SAN LUIS VALLEY/SANGRE DE CRISTO MOUNTAINS...

CITY           SKY/WX    TMP DP  RH WIND       PRES   REMARKS
ALAMOSA        FAIR      48  39  71 S7        30.10F
DEL NORTE      FAIR      47  32  57 W8        30.12S
LA VETA PASS   FAIR      45  34  65 S12       30.36F
SAGUACHE       NOT AVBL
$$

COZ035-036-038>040-230700-
...NORTHERN COLORADO FRONT RANGE...

CITY           SKY/WX    TMP DP  RH WIND       PRES   REMARKS
DENVER INTL AP MOCLDY    58  46  64 N9        30.00S
AURORA         MOCLDY    56  48  76 SW3       30.02R
FRONT RANGE AP MOCLDY    59  49  70 E12       30.00R
ERIE MUNI ARPT FAIR      55  51  86 CALM      30.05S
BOULDER MUN AP FAIR      55  50  82 CALM      30.01R
CENTENNIAL     FAIR      53  49  86 S3        30.03R
BROOMFIELD     MOCLDY    55  50  82 W5        30.03R
FORT COLLINS   CLOUDY    57  49  74 N9        29.99R
LONGMONT       FAIR      58  51  78 CALM      30.01R
$$

COZ041-046-047-076>085-087-088-230700-
...PIKES PEAK/PALMER DIVIDE AND SOUTHERN FOOTHILLS...

CITY           SKY/WX    TMP DP  RH WIND       PRES   REMARKS
COLO. SPRINGS  MOCLDY    56  47  71 N12       30.02S
A. F. ACADEMY  FAIR      56  44  62 N13       30.04S
SCHRIEVER AFB  NOT AVBL
CHEYENNE MTN   FAIR      60  42  53 NW10      30.01R
ELLICOTT         N/A    N/A N/A N/A SE9       29.99F
FALCON         FAIR      54  42  65 N3        30.06F
FORT CARSON    FAIR      57  45  64 N14       29.98S
LIMON          FAIR      62  51  67 SE12      29.98R
MONUMENT HILL  FAIR      50  41  71 NE3       30.10S
CANON CITY     FAIR      63  43  48 SW3       29.94R
WALSENBURG     FAIR      61  39  44 SW5       30.00S
TRINIDAD       FAIR      60  44  55 W13       30.01F
$$

COZ042>045-048>051-090-091-230700-
...NORTHEAST COLORADO...

CITY           SKY/WX    TMP DP  RH WIND       PRES   REMARKS
GREELEY ARPT   FAIR      55  51  86 S5        29.99R
AKRON          FAIR      64  51  62 SW13      29.94R
BURLINGTON     FAIR      65  53  65 S22G30    29.94F
WRAY           FAIR      70  52  52 S21G26    29.88F
YUMA           FAIR      66  50  55 S10       29.90R
STERLING       FAIR      63  50  63 SE3       29.89F
HOLYOKE        FAIR      61  52  72 SE8       29.91S
FORT MORGAN    MOCLDY    60  47  64 N15       29.96R
$$

COZ086-089-092>099-230700-
...SOUTHEAST COLORADO...

CITY           SKY/WX    TMP DP  RH WIND       PRES   REMARKS
PUEBLO         FAIR      66  42  41 NE5       29.89S
LA JUNTA       FAIR      70  44  39 S21G29    29.92F
LAMAR          FAIR      69  48  47 S15       29.92S
SPRINGFIELD      N/A     57  56  96 SW5       30.03S
$$




USA.gov is the U.S. government's official web portal to all federal, state and local government web resources and services.